AQI (41)

Current Conditions for Foresthill, CA. Partly Cloudy, Stopped raining   
Visibility: 10 miles
Cloud ht: 100 ft
Space WX Alerts: CONTINUED ALERT:  Electron 2MeV Integral Flux exceeded 1000pfu ( Latest Alert ) - Issue Time: 2019 May 16 1742 UTC

  Summary / Temperature 

Current Temperature
42.6°F
5.9°C
(24/hr Ago)
50.0°F
(Apparent temp)
39.6°F
Cool
Wind Chill Graphs
42.6°F 
Wind Chill-Avg
40.0°F 4.4°C
 --- Virtual Temp: 44.5°F ---

 Temp Rate:

 24/hr Difference:

 Avg Running Temp:

 Todays High:

 Todays Low:

 Y-days High:

 Y-days Low:

 Todays WChill:

 Y-days WChill:

 Evapotranspiration:

+0.4°F/hr 

-7.4°F

41.1°F

43.8°F 3:21am

39.9°F 9:04am

52.5°F 1:02pm

42.0°F 6:05am

31.2°F 8:45am

33.6°F 7:40pm

0.005 in

115' Above Ground

 Temperature:

 6'AGL VRS 115'AGL:

 Avg Running Temp:

 Humidity:

 Todays High:

 Todays Low:

 Y-days High:

 Y-days Low:

43.0°F 

+0.4°F

40.6°F

94% 

43.0°F 12:00am

39.0°F 7:07am

53.0°F 12:52pm

42.0°F 11:47pm

Temp & Humidity Graphs

  Wind 

Wind Speed

 Calm

Gusting to

 11.0 mph

Calm

139°  

Calm

 Avg speed:

 Wind Run:

 Peak Gust:

  2.0 mph 

29.0 miles

  28.0 mph 2:18am

  Almanac  

Moon age: 15 days,14 hours,27 minutes,99%

Full moon
99%
Illuminated
15 days in cycle

 Moonrise:

 Moonset:

 Sunrise:

 Sunset:

 Solar Noon:

9:18pm

6:35am

5:45am

8:11pm

1:00pm

1min 46s more daylight tomorrow 

  Solar Radiation 

(Current Solar)
  209 W/m2 (24%)
(Todays High)
 817 W/m2@9:42am
Feels like: 46.8°F in the sun

Rain

 Rain Today:

 Rain Rate (/hr):

 Rain last hour:

 Rain Yesterday:

 This Month:

 Season Total:

4 Days Since Last Dry Day

0.76 in

0.000 in

0.00 in

0.40 in

3.32 in

50.71 in

Updated Time

Updated: 5/19/19  9:56am

(Updated  sec ago)

Humidity & Barometer

 Humidity:

 Wetbulb:

 Dew Point:

 Barometer:

96% 

42.1°F 

41.5°F 

29.803 inHg 

 Baro Trend:  Steady 
Northern Calif
Preparedness
Fire 
Level 

    UV Index  

(Current UV)
1.0  Low
(Todays High) @ 9:40am
3.0   Medium

National Weather Service Forecast

Today

Today: Showers, Thunderstorms
Showers, T-Storms
Tonight

Tonight: Chance Showers, Thunderstorms
Chance Showers, T-Storms
Monday

Monday: Partly Sunny then Chance Rain Showers
Partly Sunny
Monday
Night
Monday Night: Rain Showers
Rain Showers
Tuesday

Tuesday: Showers, Thunderstorms
Showers, T-Storms
Tuesday
Night
Tuesday Night: Chance Rain Showers
Chance Rain Showers
Hi 50 °F Lo 39 °F Hi 56 °F Lo 41 °F Hi 52 °F Lo 42 °F

Foresthill Probe 2 Stats  
Foresthill Probe 2: is located on Thomas Street
at 3000 feet. The main Foresthill Weather site
is located on Melody ln at the 2860 foot elevation

Calm
43.3°F
6.3°C
Temp Rate:
+1.2°F
Calm
Gusting to
4.0 mph
(Humidity)
98%
Wind from NNW
346°  NNW
Updated: 19/05/19 - 09:50:55
 Todays High: 43.3°F 09:49
 Todays Low: 38.9°F 08:49
 Rain Today: 0.78 in
 Season Total: 55.08 in

Foresthill Wx: Monthly,Yearly, Highs and Lows 

Foresthill  
This Weather Data is coming from the main Foresthill
Weather site located on Melody ln at the 2860 foot
elevation
Not Foresthill Probe 2
Weather Data
Month
  High
Month
  Low
Year
High
Year
Low
Temp 78.6°F
5/10/19
39.9°F
5/19/19
82.2°F
4/26/19
24.5°F
2/18/19
Humidity 100%
5/16/19
14%
5/10/19
100%
1/9/19
14%
4/22/19
Heat Index 77.0°F
5/10/19
46.3°F
5/19/19
81.6°F
4/25/19
30.1°F
2/22/19
Wind Chill 78.6°F
5/10/19
31.2°F
5/19/19
82.2°F
4/26/19
11.5°F
2/11/19
Wind Gust 36 mph
5/15/19
0 mph
5/1/19
48 mph
2/27/19
0 mph
1/1/19
Barometer 30.18 in
5/17/19
29.67 in
5/16/19
30.54 in
1/23/19
29.37 in
2/14/19
ET 0.22 in
5/10/19
0.00 in
5/1/19
0.22 in
4/26/19
0.00 in
1/1/19
Dew Point 56.7°F
5/8/19
25.1°F
5/10/19
57.3°F
4/24/19
7.7°F
1/1/19
Pacific Satellite US Radar Satellite Imagery Sacramento,CA.  (click to enlarge)
NWS Weather Forecast - Summary
Updated: Sunday, May 19, 2019 - 3:30am PDT
Current Interstate Highway Conditions for I-80 & US-50

[I 80: IN THE SAN FRANCISCO BAY AREA - SOLANO CO]
  A high wind advisory is in effect at the san francisco-oakland bay bridge /in san francisco/ (san francisco,alameda co) - travel is not recommended for campers, trailers or permit loads

[I 80: IN THE NORTHERN CALIFORNIA AREA & SIERRA NEVADA]
no traffic restrictions are reported for this area.

[US 50: IN THE SACRAMENTO VALLEY & THE LAKE TAHOE BASIN]
no traffic restrictions are reported for this area.
NWS Weather Forecast: Today and Tonight (Updated: Sun, 19-May-2019 1:45am PDT)
Today

Today: Showers, Thunderstorms
Showers, T-Storms

Hi 50 °F
NWS forecast: Showers and thunderstorms. Some of the storms could produce small hail. Mostly cloudy, with a high near 50. South wind 6 to 9 mph. Chance of precipitation is 100%. New rainfall amounts between a half and three quarters of an inch possible.
Tonight

Tonight: Chance Showers, Thunderstorms
Chance Showers, T-Storms

Lo 39 °F
NWS forecast: A chance of showers and thunderstorms before 5am. Mostly cloudy, with a low around 39. South southeast wind 2 to 7 mph. Chance of precipitation is 50%. New rainfall amounts between a tenth and quarter of an inch possible.
YR.NO 10 Day Weather forecast
Last update: 05/19/2019 @ 00:35
Next update: 05/19/2019 @ 13:00
Provided by: 22
      Temperature Precipitation Pressure Wind  
Today
05/19/2019
07:00 12:00 41°F 0.10 in 29.77 inHg Gentle breeze from south 8 mph
  12:00 18:00 41°F 0.10 in 29.84 inHg Light breeze from south 4 mph
  18:00 00:00 46°F   29.79 inHg Light breeze from south-southwest 5 mph
    (Click to enlarge)
meteogram

    Forecast for next 9 days

      Temperature Precip Pressure Wind  
Monday
05/20/2019
00:00 06:00 39°F   29.90 inHg Light air from northeast 3 mph
  06:00 12:00 32°F   29.92 inHg Light air from east-northeast 3 mph
  12:00 18:00 54°F   29.92 inHg Light breeze from west 7 mph
  18:00 00:00 52°F   29.91 inHg Gentle breeze from south-southwest 8 mph
      Temperature Precip Pressure Wind  
Tuesday
05/21/2019
00:00 06:00 41°F 0.15 in 29.99 inHg Light breeze from south-southeast 7 mph
  06:00 12:00 39°F 0.30 in 29.92 inHg Light breeze from south-southwest 7 mph
  12:00 18:00 45°F 0.53 in 29.90 inHg Light breeze from south 6 mph
  17:00 23:00 43°F 0.11 in 29.81 inHg Light breeze from southeast 5 mph
  23:00 05:00 39°F   29.82 inHg Light air from east 2 mph
      Temperature Precip Pressure Wind  
Wednesday
05/22/2019
05:00 11:00 34°F   29.79 inHg Light breeze from northeast 5 mph
  11:00 17:00 54°F   29.73 inHg Light breeze from west-northwest 6 mph
  17:00 23:00 55°F 0.03 in 29.70 inHg Light breeze from west-northwest 4 mph
  23:00 05:00 46°F 0.06 in 29.75 inHg Light air from east 1 mph
      Temperature Precip Pressure Wind  
Thursday
05/23/2019
05:00 11:00 41°F 0.12 in 29.75 inHg Light air from east-northeast 1 mph
  11:00 17:00 52°F 0.44 in 29.79 inHg Light breeze from west-southwest 6 mph
  17:00 23:00 50°F 0.03 in 29.83 inHg Light breeze from southeast 4 mph
  23:00 05:00 43°F   29.89 inHg Light breeze from east-northeast 4 mph
      Temperature Precip Pressure Wind  
Friday
05/24/2019
05:00 11:00 39°F   29.91 inHg Light breeze from east-northeast 4 mph
  11:00 17:00 57°F 0.64 in 29.90 inHg Light breeze from west 4 mph
  17:00 23:00 52°F 0.07 in 29.87 inHg Light air from north-northeast 1 mph
  23:00 05:00 43°F   29.87 inHg Light air from east-northeast 2 mph
      Temperature Precip Pressure Wind  
Saturday
05/25/2019
05:00 11:00 39°F   29.86 inHg Light breeze from east-northeast 4 mph
  11:00 17:00 57°F 0.42 in 29.87 inHg Light breeze from west-southwest 5 mph
  17:00 23:00 54°F 0.04 in 29.88 inHg Light air from south-southeast 3 mph
  23:00 05:00 45°F   29.93 inHg Light air from southeast 3 mph
      Temperature Precip Pressure Wind  
Sunday
05/26/2019
05:00 11:00 46°F 0.02 in 29.95 inHg Light air from southwest 1 mph
  11:00 17:00 52°F 0.03 in 29.99 inHg Light air from west-northwest 1 mph
  17:00 23:00 54°F 0.02 in 29.95 inHg Light breeze from west-southwest 5 mph
  23:00 05:00 50°F   30.00 inHg Light air from south-southeast 1 mph
      Temperature Precip Pressure Wind  
Monday
05/27/2019
05:00 11:00 46°F   29.94 inHg Light air from east-northeast 1 mph
  11:00 17:00 61°F 0.04 in 29.93 inHg Light breeze from west 7 mph
  17:00 23:00 63°F   29.89 inHg Light breeze from west-northwest 4 mph
  23:00 05:00 52°F   29.95 inHg Light air from east-northeast 1 mph
      Temperature Precip Pressure Wind  
Tuesday
05/28/2019
05:00 11:00 43°F   29.91 inHg Light breeze from east-northeast 6 mph
  11:00 17:00 68°F   29.90 inHg Light breeze from west 5 mph
How Close Are We To this Month's Temperature Record ?
Updated Sunday, May 19, 2019- 9:45:00 AM

Current Temperature: 42.6°F

May's High: Temperature Record 86.5°F - Set on Tue, May 23, 2017 - 1:25:00 PM
We are currently 43.9°F Less than this Month's record High

May's Low: Temperature Record 39.2°F - Set on Fri, May 25, 2012 - 6:42:00 AM
We are currently 3.4°F More than this Month's record Low

Weather History For Sunday, May 19, 2019


On this Day - In Weather History ...
Data courtesy of weatherforyou.com
powered by Cumulus v1.9.3 (1059)
Ambient Weather VWS v14.00
Top Contact Website Map Copyright © 2007 - 2019 Foresthillweather.com Never base important decisions on this or any weather information obtained from the Internet